Погода в Черлаке

Погода в Черлаке : погода сейчас, прогноз погоды и архив. Всё, что Вы хотите узнать о погоде в Черлаке!

Хотите узнать прогноз погоды в Черлаке? Тогда Вам сюда: Погода в Черлаке

Поиск расширенной информации на нашем сайте:

Другие новости

Новости СМИ2

Главная страница сайта

Новости сайта

03.07.2017

Напоминаем, что на нашем специализированном сайте Метеоцентр.Азия вы можете получить высокодетализированные автоматические прогнозы погоды по пунктам России, СНГ и мира в авиационном формате (включающие направление и скорость ветра, видимость, явления погоды, количество и форму облачности, нижнюю и верхнюю границу облачности).

Рекомендуем: Лечебные камни и минералы магия драгоценных камней магические и лечебные.

Погода в Черлаке - сегодня

Время (UTC), дата Ветер
(°,м/с) 
Видим.   Явления Облачность Т
(°С)
Тd
(°С)
f(%) Тe
(°С)
Pmin
(гПа)
dP
(гПа)
Po
(мм)
O2
(г/м3)
Тmin Tmax R s Состояние
почвы
06 20.07.17 300 (СЗ) 20000 м    4/3 1000 м верхняя 
[Cu hum|Ci fib]
+23.4 +14 56 +30  1011.9  -0.3  749  275           
09 20.07.17 280 (З) 20000 м    8/5 600 м кучево-дожд., верхняя 
[Cb cap|Ci fib]
+25.9 +13.2 45 +32  1010.7  -1.1  748  273           
12 20.07.17 270 (З) 20000 м  в посл. час гроза{ливн. осадки}  9/8 600 м кучево-дожд., верхняя 
[Cb cap|Ci fib]
+23.8 +13.9 54 +31  1011.1  0.3  748  275           
15 20.07.17 030 (СВ) 20000 м    8/3 600 м кучево-дожд., верхняя 
[Cb cap|Cc]
+20.5 +14.4 68 +28  1011.6  0.3  749  278    +26.3       
18 20.07.17 320 (СЗ) 10 км    ясно 
+16 +14.4 90 +25  1011.9  0.1  749  282           
21 20.07.17 350 (С) 10 км    8/0 верхняя 
[Cs]
+14.1 +13.5 96 +21  1012  749  284           
00 21.07.17 тихо ()   20000 м    10/0 верхняя 
[Cs]
+15.2 +14.6 96 +23  1012.5  0.6  749  283           
03 21.07.17 310 (СЗ) 20000 м    10/0 верхняя 
[Ci fib]
+20.8 +15.1 70 +30  1012.8  0.5  750  277  +13.4         
06 21.07.17 090 (В) 20000 м    10/4 600 м кучево-дожд., средняя, верхняя 
[Cb cap|As trans|Cs]
+23.9 +14.9 57 +32  1012.3  -0.3  749  275           
09 21.07.17 270 (З) 20000 м    10/5 600 м кучево-дожд., верхняя 
[Cb cap|Cs]
+26.1 +14.1 48 +33  1011.1  -1.1  749  272           
12 21.07.17 130 (ЮВ) 20000 м  гроза без осадков  10/6 600 м кучево-дожд., средняя, верхняя 
[Cb cap|Ac cuf|Cs]
+23.6 +12.6 50 +28  1011.4  0.1  749  275           
15 21.07.17 020 (С) 20000 м  {гроза}  10/4 600 м кучево-дожд., средняя, верхняя 
[Cb cap|Ac cuf|Cs]
+19.8 +13.7 68 +28  1012.2  0.6  749  279    +26.4       
18 21.07.17 270 (З) 10 км  {гроза}  3/0 средняя 
[Ac As]
+16.2 +14.2 88 +25  1012.4  749  282           
21 21.07.17 010 (С) 10 км    6/3 600 м кучево-дожд., средняя 
[Cb cap|Ac As]
+14.6 +14.1 97 +23  1012.1  -0.3  749  284           
00 22.07.17 040 (СВ) 20000 м    3/1 1000 м верхняя 
[Cu med, cong|Ci fib]
+15.1 +13.8 92 +23  1012.6  0.5  749  283           
03 22.07.17 350 (С) 20000 м    3/1 1000 м средняя, верхняя 
[Cu med, cong|As trans|Ci fib]
+22 +15.5 67 +32  1012.8  0.5  750  276  +14.3         
06 22.07.17 360 (С) 20000 м    8/8 600 м кучево-дожд. 
[Cb cap]
+24.5 +13.8 51 +31  1012.5  -0.2  749  274           
09 22.07.17 300 (СЗ) 20000 м    8/8 600 м кучево-дожд. 
[Cb cap]
+27.7 +13.5 42 +34  1011.6  -0.8  749  271           
12 22.07.17 210 (ЮЗ) 20000 м  гроза без осадков  8/8 600 м кучево-дожд., верхняя 
[Cb cap|Cs]
+25.6 +13.7 48 +32  1011.5  0.1  749  273           
15 22.07.17 280 (З) 20000 м  в посл. час гроза  8/4 600 м кучево-дожд., средняя, верхняя 
[Cb cap|Ac cuf|Cs]
+21.5 +14.2 63 +29  1012.1  0.4  749  277    +27.9       
18 22.07.17 020 (С) 10 км  {гроза}  ясно 
+17.1 +13.6 80 +25  1011.9  -0.4  749  281           
21 22.07.17 360 (С) 10 км    ясно 
+14.4 +13.1 92 +22  1011.7  -0.3  749  284           
00 23.07.17 тихо ()   20000 м    ясно 
+15 +14 94 +22  1011.7  749  283           
06 23.07.17 220 (ЮЗ) 20000 м    10/6 600 м кучево-дожд., верхняя 
[Cb cap|Cs]
+25.6 +14.1 49 +33  1010.8  -0.5  748  273           
09 23.07.17 230 (ЮЗ) 20000 м    10/6 600 м кучево-дожд., средняя, верхняя 
[Cb cap|Ac trans|Cs]
+26.4 +13.7 46 +33  1010.1  -0.6  748  272           
Время (UTC), дата Ветер
(°,м/с) 
Видим.   Явления Облачность Т
(°С)
Тd
(°С)
f(%) Тe
(°С)
Pmin
(гПа)
dP
(гПа)
Po
(мм)
O2
(г/м3)
Тmin Tmax R s Состояние
почвы

Для получения пояснительной информации подведите курсор к названию столбца.

ПОГОДА в Черлаке - архив

Всё, что Вы хотите узнать о погоде в Черлаке - удобно и подробно!

Выберите нужную дату (начиная с 1 января 2015* года) и нажмите кнопку "Найти".
Будут отображены архивные сводки погоды по пункту Черлак, начиная с указанной даты.


Отображать данные в формате CSV (для использования в таблицах Excel)


Внимание! Наш архив погоды предназначен исключительно для личного некоммерческого использования в познавательных целях. Если Вам необходимы официальные справки о состоянии погоды (для производственных, юридических, коммерческих и т.п. целей), обращайтесь в органы Росгидромета.

*Примечание: данная дата относится к архиву по метеостанциям СССР (Россия, СНГ, Балтия).
Архив по метеостанциям Зарубежной Европы и Азии (кроме Китая) хранится 10 дней, по другим регионам земного шара (Китай, Африка, Америка, Австралия, Океания) - 1 день.

Черлак - район местоположения метеостанции


Название, широта, долгота, высота метеостанции:
Черлак 54.2°ш. 74.8°д. 115 м над ур. моря [Российская Федерация]

Дополнительная информация

В oтличие oт бoльшинства пoгoдных сайтoв мы публикуем пoдрoбную метеoинфoрмацию в детальнoм прoфессиoнальнoм фoрмате.

Характеристики температуры и влажнoсти вoздуха измеряются на высoте 2 м в тени вдали oт зданий и деревьев.
Скoрoсть ветра измеряется на высoте 10 м (на урoвне рoста челoвека скoрoсть ветра ниже в 1.5-2 раза). Если метеoстанция нахoдится в гoрoде или в лесу, тo скoрoсть ветра занижена на 2-4 м/с пo сравнению с oткрытым местoм. Скoрoсть ветра над акватoриями крупных рек и oзёр, а также на вершинах хoлмoв на 2-5 м/с выше, чем в oбычных услoвиях.
Атмoсфернoе давление в разных тoчках местнoсти мoжет значительнo oтличаться oт давления на метеoстанции, в зависимoсти oт услoвий рельефа (при пoдъёме на 10 м давление пoнижается примернo на 1 мм рт.ст.).